Home > Weather > Venice > Past weeks

Flag for Italy Weather for the Past 2 Weeks in Venice, Italy

Now
59 °F

Sunny.


Feels Like: 59 °F
Forecast: 54 / 67 °F
Wind: 5 mph from Northwest

Location: Venice / Tessera

Current Time: May 3, 2016 at 9:11:09 AM

Latest Report: May 3, 2016 at 8:20 AM


Visibility: 10 mi

Pressure: 29.92 "Hg

Humidity: 72%

Dew Point: 50 °F

Location of VeniceLocation

Historic Weather in Venice — Graph

°F

Venice Temperature Yesterday

Maximum temperature yesterday: 64 °F (at 3:20 PM)
Minimum temperature yesterday: 54 °F (at 4:50 AM)
Average temperature yesterday: 58 °F

High & Low Weather Summary for the Past Weeks

 TemperatureHumidityPressure
High68 °F (Apr 18, 1:20 PM)100% (Apr 24, 3:20 AM)30.33 "Hg (Apr 24, 3:20 AM)
Low43 °F (Apr 29, 3:50 AM)32% (Apr 29, 1:50 PM)29.50 "Hg (Apr 24, 4:50 AM)
Average56 °F70%29.91 "Hg
* Reported Apr 18 8:20 AM — May 3 7:20 AM, Venice, Weather by CustomWeather, © 2016

Note: Actual official high and low records may vary slightly from our data, if they occured in-between our weather recording intervals... More about our weather records

Advertising

Venice Weather History for the Previous 24 Hours

Scroll right to see more
 ConditionsComfort  
Time TempWeatherWind HumidityBarometerVisibility
7:20 AM
Tue, May 3
54 °FPassing clouds.6 mph88%29.89 "HgN/A
6:50 AM54 °FPassing clouds.6 mph88%29.89 "HgN/A
6:20 AM52 °FPassing clouds.3 mph94%29.89 "HgN/A
5:50 AM52 °FPassing clouds.5 mph94%29.89 "HgN/A
5:20 AM54 °FPassing clouds.7 mph88%29.89 "HgN/A
4:50 AM54 °FClear.5 mph88%29.89 "Hg10 mi
4:20 AM54 °FClear.3 mph88%29.89 "Hg10 mi
3:50 AM54 °FClear.7 mph94%29.89 "Hg10 mi
2:20 AM55 °FClear.3 mph88%29.92 "Hg10 mi
1:50 AM55 °FClear.3 mph82%29.92 "Hg10 mi
12:50 AM55 °FClear.2 mph82%29.92 "Hg10 mi
12:20 AM57 °FPassing clouds.2 mph77%29.92 "HgN/A
11:50 PM
Mon, May 2
57 °FPassing clouds.3 mph77%29.92 "HgN/A
11:20 PM57 °FPassing clouds.6 mph77%29.92 "HgN/A
10:50 PM57 °FClear.8 mph77%29.92 "Hg10 mi
10:20 PM57 °FPassing clouds.6 mph77%29.92 "HgN/A
9:50 PM59 °FPassing clouds.5 mph77%29.92 "HgN/A
9:20 PM59 °FPassing clouds.8 mph77%29.89 "HgN/A
8:50 PM59 °FSunny.2 mph82%29.89 "Hg10 mi
8:20 PM61 °FSunny.2 mph77%29.89 "Hg10 mi
7:50 PM61 °FPassing clouds.5 mph72%29.89 "HgN/A
6:50 PM63 °FPassing clouds.7 mph64%29.86 "HgN/A
6:20 PM63 °FPassing clouds.12 mph64%29.86 "HgN/A
5:50 PM63 °FScattered clouds.15 mph64%29.86 "HgN/A
5:20 PM64 °FScattered clouds.16 mph60%29.86 "HgN/A
4:50 PM64 °FSunny.17 mph60%29.86 "Hg10 mi
4:20 PM64 °FSunny.20 mph60%29.86 "Hg10 mi
3:50 PM64 °FSunny.18 mph60%29.89 "Hg10 mi
3:20 PM64 °FSunny.15 mph60%29.89 "Hg10 mi
2:50 PM63 °FScattered clouds.9 mph68%29.89 "HgN/A
2:20 PM61 °FPartly sunny.9 mph72%29.89 "HgN/A
1:50 PM61 °FPartly sunny.9 mph72%29.89 "HgN/A
1:20 PM59 °FScattered showers. Partly sunny.8 mph77%29.89 "HgN/A
12:50 PM59 °FScattered showers. Partly sunny.12 mph72%29.89 "HgN/A
12:20 PM59 °FScattered clouds.16 mph77%29.89 "HgN/A
11:50 AM57 °FLight rain. Scattered clouds.14 mph77%29.89 "HgN/A
11:20 AM55 °FLight rain. Broken clouds.12 mph88%29.92 "HgN/A
10:50 AM55 °FLight rain. Broken clouds.10 mph88%29.89 "HgN/A
10:20 AM55 °FLight rain. Broken clouds.9 mph88%29.89 "HgN/A
9:50 AM55 °FLight rain. Broken clouds.9 mph82%29.89 "HgN/A
9:20 AM55 °FLight rain. Broken clouds.8 mph82%29.89 "HgN/A
Weather by CustomWeather, © 2016

See weather overviewHow to use our weather pages